Preview of NWS' New Version of Forecast
This preview is not operational and should not be used for support decisions.

Regional Weather Roundup (RWR)

Issued by National Weather Service (NWS)

                            
000
ASUS43 KMKX 211621
RWRWI 

WISCONSIN REGIONAL WEATHER ROUNDUP
NATIONAL WEATHER SERVICE MILWAUKEE/SULLIVAN WI
1000 AM CST THU FEB 21 2019

NOTE: "FAIR" INDICATES FEW OR NO CLOUDS BELOW 12,000 FEET WITH NO
SIGNIFICANT WEATHER AND/OR OBSTRUCTIONS TO VISIBILITY.

WIZ001-002-006>008-014>016-023>028-211700-
NORTHWEST WISCONSIN
  
CITY           SKY/WX    TMP DP  RH WIND       PRES   REMARKS
SUPERIOR ARPT  FAIR      22  16  76 SW7       30.03R WCI  14          
ASHLAND        CLOUDY    23  18  81 W14       30.00R WCI  11          
HAYWARD        CLOUDY    19  15  84 SW9       30.01R FOG     WCI   8  
SIREN          CLOUDY    17  13  84 SW8       30.06R FOG     WCI   7  
CUMBERLAND     LGT SNOW  16  10  79 SW10      30.05R WCI   3          
RICE LAKE      LGT SNOW  16   5  62 SW6       30.07R WCI   7          
CHETEK         LGT SNOW  16  11  80 SW6       30.08R WCI   7          
LADYSMITH      LGT SNOW  17  11  80 SW6       30.06R WCI   8          
EAU CLAIRE     CLOUDY    13   8  81 SW9       30.08R HAZE    WCI   1  
MENOMONIE      LGT SNOW  14   7  74 SW6       30.10R WCI   5          
NEW RICHMOND   LGT SNOW  15   9  75 W5        30.10R WCI   8          
OSCEOLA        LGT SNOW  16  12  84 SW8       30.13R WCI   5          
$$
 
WIZ003>005-009-010-017-018-211700-
NORTH CENTRAL WISCONSIN
  
CITY           SKY/WX    TMP DP  RH WIND       PRES   REMARKS
MANITOWISH WTR NOT AVBL                                               
ARBOR VITAE    LGT SNOW  22  17  83 W10       29.95R WCI  11          
WOODRUFF       LGT SNOW  22  17  83 W10       29.95R WCI  11          
RHINELANDER    LGT SNOW  21  14  74 W9        29.95R WCI  11          
EAGLE RIVER    LGT SNOW  22  16  79 W10G16    29.92R WCI  11          
LAND O LAKES   LGT SNOW  25  19  78 W9G16     29.93R WCI  15          
PHILLIPS       CLOUDY    15  12  85 SW10      29.99R WCI   3          
TOMAHAWK       LGT SNOW  19  13  74 W8        29.98R WCI   9          
MEDFORD        LGT SNOW  12   7  78 SW8       30.02R WCI   1          
MERRILL        FAIR      18  10  69 W10       30.01R WCI   6          
$$
 
WIZ029-030-035-036-043>047-211700-
CENTRAL WISCONSIN
  
CITY           SKY/WX    TMP DP  RH WIND       PRES   REMARKS
WAUSAU         FAIR      16   9  74 W14       30.01R WCI   2          
MOSINEE        MOSUNNY   16  10  79 W10       30.03R WCI   3          
MARSHFIELD     CLOUDY    13   7  77 W13       30.03R HAZE    WCI  -2  
STEVENS POINT  FAIR      15   8  75 W8        30.05R WCI   4          
WAUPACA        FAIR      23  12  62 W12       30.07R WCI  11          
WAUTOMA        FAIR      22  12  65 W13       30.09R WCI  10          
WISC RAPIDS    FAIR      16   7  67 W8        30.07R WCI   5          
CAMP DOUGLAS   SUNNY     18  10  73 W13       30.10R WCI   4          
$$
 
WIZ011>013-019>022-031-037>040-048>050-211700-
NORTHEAST WISCONSIN
  
CITY           SKY/WX    TMP DP  RH WIND       PRES   REMARKS
ANTIGO         FAIR      18  11  74 W12       29.99R WCI   6          
SHAWANO        FAIR      27  15  59 W9G17     30.03R WCI  18          
OCONTO         FAIR      23  14  68 W10G18    30.02R WCI  12          
STURGEON BAY   FAIR      23  14  68 W15       29.99R WCI  10          
GREEN BAY      FAIR      23  12  62 W16       30.05R WCI  10          
MANITOWOC      FAIR      23  13  65 W14       30.07R WCI  11          
APPLETON       SUNNY     19   9  63 W15       30.03R WCI   5          
CLINTONVILLE   FAIR      21  11  64 W13       30.04R WCI   8          
OSHKOSH        FAIR      20  11  68 W8        30.07R WCI  10          
$$
 
WIZ032>034-041-042-053>061-211700-
SOUTHWEST WISCONSIN
  
CITY           SKY/WX    TMP DP  RH WIND       PRES   REMARKS
LA CROSSE      FAIR      16   6  65 W6        30.15R WCI   7          
SPARTA         FAIR      17   9  71 CALM      30.13R                  
VIROQUA        FAIR      17  10  73 W7        30.10R WCI   8          
BOSCOBEL       FAIR      20   9  62 W7        30.16R WCI  11          
PRAIRIE DU CHI FAIR      17   8  66 W12       30.17R WCI   4          
PLATTEVILLE    FAIR      19  13  78 W9        30.14R WCI   8          
$$

WIZ056-057-062-063-064-067-068-211700-
SOUTH CENTRAL WISCONSIN
  
CITY           SKY/WX    TMP DP  RH WIND       PRES   REMARKS
REEDSBURG      FAIR      19  10  66 W10       30.11R WCI   8          
BARABOO/DELLS  FAIR      20  10  65 W10       30.11R WCI   9          
LONE ROCK      FAIR      20  11  68 W9        30.15R WCI   9          
MINERAL POINT  FAIR      19  14  79 W10       30.12R WCI   8          
MADISON        FAIR      21  10  62 W12G18    30.11R WCI   9          
MIDDLETON      FAIR      24  12  62 W9        30.12R WCI  14          
WATERTOWN      FAIR      23  12  63 W10       30.12R WCI  12          
MONROE         FAIR      22  13  67 MISG      30.14R                  
JANESVILLE     SUNNY     25  14  63 W15       30.15R WCI  12          
$$
 
WIZ051-052-058>065-066-070>072-211700-
SOUTHEAST WISCONSIN
  
CITY           SKY/WX    TMP DP  RH WIND       PRES   REMARKS
MILWAUKEE      FAIR      27  14  58 W9G18     30.11R WCI  18          
WAUKESHA       SUNNY     21  12  68 W10       30.11R WCI  10          
MILWAUKEE/TIMM SUNNY     25  10  54 W15       30.11R WCI  12          
RACINE         FAIR      26  14  60 W12G24    30.14R WCI  16          
KENOSHA        FAIR      27  15  61 W15       30.13R WCI  15          
FOND DU LAC    FAIR      20  11  68 W13       30.08R WCI   7          
SHEBOYGAN      FAIR      21  12  68 W16G24    30.07R WCI   7          
WEST BEND      FAIR      23  14  68 W16G22    30.07S WCI  10          
JUNEAU         FAIR      19  11  69 W7        30.10R WCI  10          
$$

LSZ147-162-211700-
LAKE SUPERIOR
  
STATION/POSITION TIME  TEMP    WIND        PRES    WAVE
                       AIR SEA DIR/SP/G            HT/PER
                 (UTC) (F)     (DEG/KT/KT) (MB)    (FT/S)
DEVILS ISLAND    1600   21     270/ 11/ 14 1016.8R
SAXON HARBOR     1530   24     210/  8/ 10 1015.2R
$$
 
LMZ867-665-643>646-211700-
LAKE MICHIGAN
  
STATION/POSITION TIME  TEMP    WIND        PRES    WAVE
                       AIR SEA DIR/SP/G            HT/PER
                 (UTC) (F)     (DEG/KT/KT) (MB)    (FT/S)
CHAMBERS ISLAND  1540   26     230/  8/ 15 1014.2R
NORTHPORT PIER   1540   26     250/  5/  9 1014.6R
KEWAUNEE LAKESHO 1554   22     270/ 10/ 18 1016.1R
SHEBOYGAN LAKESH 1600   22     260/ 14/ 16 1019.4R
PORT WASHINGTON  1540   24     280/  9/ 16 1020.3R
MILWAUKEE LAKESH 1600   26     260/  5/ 19   N/A
KENOSHA   LAKESH 1600   26     260/ 13/ 19 1020.7
$$

TC  - TEMPERATURE IN CELSIUS
VSB - VISIBILITY IN STATUTE MILES
WCI - WIND CHILL INDEX
HX  - HEAT INDEX